Location: Voyageurs National Park
(48.5020°N, 92.9292°W)
Time: 21:39:12
(UTC-05:00)

Daily predictions for brighter satellites

Satellite Brightness Start Highest point End
(mag) Time Altitude Azimuth Time Altitude Azimuth Time Altitude Azimuth
Cosmos 1908 Rocket 4.1 21:30:11 10° SSE 21:34:17 39° E 21:38:25 10° NNE
Cosmos 2082 Rocket 3.5 21:30:30 10° NNW 21:35:25 28° NE 21:40:17 10° ESE
Cosmos 1378 Rocket 3.9 21:31:19 10° N 21:35:31 47° ENE 21:39:41 10° SSE
Cosmos 2154 Rocket 4.3 21:29:54 10° SSE 21:35:50 48° E 21:41:45 10° NNE
Cosmos 1356 Rocket 3.8 21:33:06 10° SSW 21:37:20 75° WNW 21:41:39 10° N
NOSS 2-2 (E) 3.7 21:33:31 10° SSW 21:37:45 69° SE 21:42:53 10° NE
Cosmos 1733 Rocket 3.1 21:33:52 10° S 21:38:17 90° WSW 21:42:43 10° N
H-2A R/B 3.6 21:35:37 10° ESE 21:39:47 24° ENE 21:43:55 10° N
Cosmos 1242 Rocket 3.9 21:37:35 10° NNE 21:40:40 25° ENE 21:43:46 10° SE
MetOp-A 4.3 21:35:48 10° SSE 21:41:05 64° ENE 21:46:24 10° N
Gbstr 26 Del rocket 4.0 21:36:18 10° W 21:41:58 60° N 21:46:32 10° ENE
Cosmos 407 Rocket 3.6 21:36:43 10° NNW 21:42:00 82° WSW 21:47:19 10° SSE
SL-8 R/B 4.0 21:37:35 10° SW 21:42:13 48° SSE 21:46:51 10° E
Cosmos 2184 Rocket 4.1 21:36:29 10° S 21:42:39 83° W 21:48:54 10° N
USA 245 4.0 21:40:22 10° SE 21:43:24 35° ENE 21:47:09 10° N
OPS 6432 4.3 21:40:18 10° SSW 21:43:33 56° SE 21:46:37 10° NE
Cosmos 2263 Rocket 3.8 21:38:56 10° WSW 21:44:16 41° NW 21:49:37 10° NNE
Meteor 1-27 Rocket 3.7 21:42:38 10° N 21:48:17 81° ENE 21:53:48 10° SSE
Cosmos 2084 4.4 21:47:34 10° SSE 21:50:28 21° ESE 21:53:23 10° ENE
ERS-1 Rocket 3.9 21:46:00 10° S 21:50:52 48° W 21:55:46 10° NNW
Nimbus 7 Rocket 4.4 21:46:53 10° NNE 21:52:49 70° ESE 21:58:45 10° S
Cosmos 1452 Rocket 3.8 21:47:55 10° S 21:52:55 46° ESE 21:57:57 10° NNE
Cosmos 1782 3.5 21:49:30 10° NNW 21:53:27 55° W 21:57:23 10° S
Cosmos 1140 Rocket 3.8 21:48:24 10° NNW 21:53:27 53° ENE 21:58:17 11° SE
SPOT 1/Viking Rocket 3.8 21:49:37 10° SSE 21:54:41 57° ENE 21:59:49 10° N
SL-08 RB Rocket 4.4 21:51:09 10° SE 21:55:26 40° ENE 21:59:47 10° N
Cosmos 1606 2.9 21:54:51 10° NNW 21:58:48 79° W 22:02:44 10° S
Cosmos 1939 Rocket 4.0 21:57:55 10° S 22:01:35 40° W 22:05:19 10° NNW
H-2A R/B 2.9 22:00:16 10° S 22:04:26 47° W 22:08:33 10° NNW
NOAA 11 4.4 21:59:37 10° SSE 22:05:01 61° ENE 22:10:28 10° N
USA 234 4.2 22:02:00 10° ENE 22:06:59 23° SE 22:11:55 10° S
CZ-4B R/B 3.8 22:03:05 10° NNE 22:07:52 44° E 22:12:30 10° S
CZ-4 R/B 4.4 22:09:57 10° NNE 22:14:20 37° E 22:18:11 12° SSE
NOSS 5 (C) 4.5 22:15:56 10° SSW 22:19:05 44° SE 22:22:04 10° NE
Cosmos 1184 Rocket 2.8 22:18:37 10° S 22:21:56 68° E 22:25:16 10° NNE
Cosmos 1850 Rocket 4.1 22:16:57 10° NNW 22:22:16 70° ENE 22:26:29 16° SSE
BREEZE-M DEB (TANK) 1.2 22:22:25 10° WSW 22:24:27 88° N 22:27:34 10° ENE
Okean 2 Rocket 3.0 22:23:04 10° S 22:27:28 69° E 22:31:52 10° NNE
Cosmos 2218 Rocket 4.3 22:25:46 12° SSE 22:31:26 52° E 22:37:37 10° NNE
IGS 5A 4.1 22:32:35 19° SE 22:35:06 41° ENE 22:39:02 10° N
DELTA 2 DEB (DPAF) 4.2 22:36:15 19° SSE 22:39:23 72° ENE 22:43:52 10° N
Cosmos 1741 Rocket 4.0 22:36:10 10° NNW 22:41:27 87° WSW 22:45:10 20° SSE
Cosmos 1727 Rocket 4.1 22:37:36 10° N 22:43:44 61° ENE 22:48:04 20° SSE
Cosmos 1782 Rocket 4.0 22:42:26 10° SSW 22:46:52 64° WNW 22:51:20 10° N
COSMOS 2487 3.9 22:44:04 10° NW 22:47:22 33° WSW 22:49:57 14° SSW
ARGOS 3.5 22:42:39 13° S 22:47:22 63° WSW 22:52:43 10° NNW
Meteor 1-18 Rocket 4.4 22:44:02 10° N 22:49:55 67° ENE 22:53:54 21° SSE
USA 229 DEB 3.8 22:43:55 10° NW 22:51:03 83° NE 22:56:15 20° SE
USA 229 3.8 22:44:01 10° NW 22:51:09 82° NE 22:56:21 20° SE
Cosmos 2341 Rocket 4.5 22:45:22 10° SSW 22:51:37 63° WNW 22:57:51 10° N
Landsat 7 3.8 22:48:21 20° SSE 22:51:40 86° WSW 22:56:28 10° NNW
Cosmos 1959 Rocket 4.4 22:46:48 14° S 22:52:11 72° E 22:58:16 10° NNE
Meteor 1-14 Rocket 4.2 22:50:48 13° S 22:55:52 77° E 23:01:29 10° NNE
Cosmos 1975 Rocket 4.3 22:54:38 10° NNW 22:58:37 36° W 23:02:26 11° SSW
DNEPR-1 R/B 4.4 22:53:32 10° NW 22:58:55 50° WSW 23:01:40 23° S
Timation 2 Rocket 4.3 22:54:47 10° NW 23:00:39 56° WSW 23:04:45 20° S
ISS -1.6 22:57:49 10° SW 23:05:24 - ENE 22:59:04 20° SSW
APEX 3.6 22:57:54 17° SSW 23:00:55 64° ESE 23:06:07 10° NE
Cosmos 1825 3.9 22:58:04 10° SW 23:01:31 32° WNW 23:05:00 10° N
Cosmos 1833 Rocket 2.7 22:57:17 10° NNW 23:02:56 82° ENE 23:06:17 26° SSE
Cosmos 2278 Rocket 2.4 22:58:13 10° SSW 23:03:54 75° WNW 23:09:36 10° NNE
CARTOSAT-1 3.5 23:01:47 26° SSE 23:04:11 87° WSW 23:08:32 10° NNW
Intercosmos 25 3.8 23:02:10 11° SSW 23:05:24 48° WNW 23:08:29 10° N
Terra 1.8 23:04:36 25° SSE 23:07:24 86° WSW 23:12:12 10° NNW
Cosmos 1339 Rocket 4.4 23:04:57 10° N 23:11:06 79° E 23:14:57 25° SSE
Spot 4 3.8 23:08:31 27° SSE 23:11:10 81° ENE 23:16:03 10° NNW
Cosmos 1536 Rocket 3.6 23:07:02 10° NNW 23:11:32 81° W 23:13:54 28° S
Cosmos 1844 Rocket 4.2 23:07:09 10° WSW 23:12:23 37° NW 23:17:38 10° NNE
SL-8 Rocket 4.2 23:06:18 10° SSW 23:12:33 71° W 23:18:49 10° N
Cosmos 1812 2.7 23:10:27 10° N 23:14:21 72° E 23:15:44 38° SSE
Meteor 2-19 Rocket 4.4 23:11:00 22° S 23:15:02 68° E 23:21:07 10° NNE
Cosmos 1242 Rocket 4.4 23:12:37 10° NW 23:15:40 25° W 23:18:09 13° SW
ASTEX 1 3.6 23:11:34 10° NNE 23:16:26 54° E 23:18:39 30° SSE
Cosmos 1420 Rocket 4.3 23:13:12 10° SSW 23:18:25 68° WNW 23:23:38 10° NNE
H-2A R/B 2.4 23:15:17 22° S 23:18:48 63° WSW 23:24:06 10° NNW
Cosmos 2082 Rocket 2.4 23:14:19 10° NNW 23:19:57 63° WSW 23:23:06 26° S
Lacrosse 5 4.1 23:22:41 10° E 23:22:41 10° E 23:22:44 10° E
Cosmos 1486 Rocket 4.4 23:18:07 10° NNW 23:23:25 56° ENE 23:26:01 29° SE
SL-8 R/B 3.6 23:19:47 10° W 23:24:37 88° S 23:29:27 10° E
BREEZE-M DEB (TANK) 4.0 23:22:03 10° W 23:25:44 82° N 23:38:31 10° E
Gbstr 26 Del rocket 3.0 23:24:13 10° WNW 23:29:17 85° NNE 23:31:25 29° ESE
Cosmos 2084 4.0 23:25:58 10° WSW 23:29:42 50° NW 23:33:29 10° NE
ATLAS 2AS CENTAUR R/B 4.3 23:22:28 10° NW 23:29:57 37° NNE 23:37:14 10° E
Cosmos 2151 Rocket 4.1 23:29:57 19° SSW 23:33:04 58° WNW 23:37:33 10° N
Cosmos 2297 3.8 23:30:55 10° SSW 23:36:38 79° WNW 23:42:25 10° NNE
NOSS 3-1 (C) 4.1 23:33:22 10° NW 23:40:44 73° NE 23:46:09 23° SE
Cosmos 1536 3.9 23:43:44 29° E 23:43:59 29° E 23:47:28 10° NNE
Cosmos 1400 Rocket 3.7 23:45:55 34° ESE 23:46:17 34° E 23:50:03 10° NNE
SAR-Lupe-2 4.4 23:45:36 35° SW 23:46:29 43° W 23:49:55 10° NNW
USA 234 3.1 23:44:11 10° ENE 23:50:45 73° SE 23:57:16 10° SW
ALOS 2 3.7 23:49:23 27° ESE 23:50:46 34° ENE 23:54:45 10° N
Spot 2 4.1 23:47:31 10° NNE 23:51:59 77° WNW 23:53:44 35° SSW
